Flag for United Kingdom Weather past 2 weeks in Market Harborough, England, United Kingdom

Now
50 °F

Cool.


Feels Like: 49 °F
Forecast: 52 / 68 °F
Wind: 3 mph from South

Location: Church Lawford

Current Time: Aug 28, 2015 at 3:35:27 AM

Latest Report: Aug 28, 2015 at 2:00 AM


Visibility: 16 mi

Pressure: 29.87 "Hg

Humidity: 90%

Dew point: 47 °F

Location of Market HarboroughLocation

Historic Weather in Market Harborough — Graph

°F

Market Harborough temperature yesterday

Maximum temperature yesterday: 65 °F (at 4:00 PM)
Minimum temperature yesterday: 54 °F (at 7:00 AM)
Average temperature yesterday: 58 °F

Past Weeks' High & Low Weather Summary

 TemperatureHumidityPressure
High82 °F (Aug 22, 5:00 PM)100% (Aug 14, 7:00 AM)30.16 "Hg (Aug 14, 7:00 AM)
Low46 °F (Aug 16, 7:00 AM)40% (Aug 16, 3:00 PM)29.47 "Hg (Aug 24, 2:00 PM)
Average61 °F79%29.85 "Hg
* Reported Aug 13 2:00 AM — Aug 28 2:00 AM, Market Harborough, Weather by CustomWeather, © 2015

Note: Actual official high and low records may vary slightly from our data, if they occured in-between our weather recording intervals... More about our weather records

Advertising

Market Harborough weather history for previous 24 hours

 ConditionsComfort  
Time TempWeatherWind HumidityBarometerVisibility
2:00 AM
Fri, Aug 28
50 °FCool.3 mph90%29.87 "Hg16 mi
1:00 AM51 °FCool.3 mph88%29.85 "Hg19 mi
12:00 AM53 °FCool.3 mph83%29.84 "Hg25 mi
9:00 PM
Thu, Aug 27
56 °FCool.3 mph77%29.78 "Hg31 mi
8:00 PM57 °FCool.2 mph83%29.75 "Hg31 mi
7:00 PM59 °FCool.5 mph78%29.73 "Hg22 mi
6:00 PM58 °FCool.3 mph84%29.72 "Hg22 mi
5:00 PM63 °FMild.12 mph58%29.71 "Hg28 mi
4:00 PM65 °FMild.9 mph54%29.70 "Hg22 mi
3:00 PM62 °FCool.9 mph61%29.70 "Hg28 mi
2:00 PM63 °FMild.10 mph55%29.68 "Hg18 mi
1:00 PM65 °FMild.9 mph55%29.67 "Hg22 mi
12:00 PM63 °FMild.9 mph65%29.67 "Hg18 mi
11:00 AM60 °FCool.10 mph70%29.67 "Hg31 mi
10:00 AM59 °FCool.8 mph81%29.66 "Hg28 mi
9:00 AM57 °FCool.6 mph89%29.65 "Hg19 mi
8:00 AM55 °FCool.5 mph94%29.65 "Hg19 mi
7:00 AM54 °FLight freezing rain. Cloudy.6 mph95%29.64 "Hg13 mi
6:00 AM54 °FRain showers. Overcast.6 mph96%29.63 "Hg9 mi
5:00 AM55 °FLots of rain. Overcast.6 mph92%29.63 "Hg28 mi
4:00 AM55 °FCool.6 mph93%29.62 "Hg16 mi
3:00 AM55 °FCool.7 mph94%29.62 "Hg19 mi
Weather by CustomWeather, © 2015

See weather overviewHow to use our weather pages